Location: Karlsruhe
(49.0131°N, 8.3874°E)
Time: 04:30:15
(UTC+01:00)

N. Korean satellite - Visible Passes

Search period start: 20 February 2018 00:00
Search period end: 02 March 2018 00:00
Orbit: 459 x 514 km, 97.2° (Epoch: 19 February)

Date Brightness Start Highest point End Pass type
(mag) Time Alt. Az. Time Alt. Az. Time Alt. Az.
20 Feb 8.7 06:42:49 10° NNE 06:46:11 34° E 06:49:35 10° SSE visible
20 Feb 9.1 18:56:41 10° SSW 18:59:37 26° W 19:02:36 10° NW visible
21 Feb 9.8 06:19:35 10° NE 06:22:18 19° E 06:25:02 10° SE visible
21 Feb 7.7 18:32:24 10° S 18:35:46 49° W 18:39:11 10° NNW visible
22 Feb 10.6 05:57:17 10° ENE 05:58:21 11° E 05:59:25 10° ESE visible
23 Feb 10.0 19:19:58 10° SW 19:22:02 15° W 19:24:07 10° NW visible
24 Feb 8.8 06:41:20 10° NNE 06:44:43 33° E 06:48:07 10° SSE visible
24 Feb 9.1 18:55:06 10° SSW 18:58:05 27° W 19:01:08 10° NW visible
25 Feb 9.9 06:18:06 10° NE 06:20:49 19° E 06:23:32 10° SE visible
26 Feb 10.6 05:55:51 10° ENE 05:56:50 11° E 05:57:49 10° ESE visible
27 Feb 10.0 19:18:18 10° SW 19:20:28 16° W 19:22:40 10° NW visible
28 Feb 9.0 18:53:28 10° SSW 18:56:31 28° W 18:59:38 10° NW visible
01 Mar 10.0 06:16:34 10° NE 06:19:16 19° E 06:21:58 10° SE visible
